Hourly Data Report for November 18, 2017

All times are specified in Local Standard Time (LST). Add 1 hour to adjust for Daylight Saving Time where and when it is observed.

BATHURST A
NEW BRUNSWICK

47°37'47.000" N
65°44'20.000" W
58.80 m
8100505
71574
ZBF

Download Data

Hourly Data (November 2017)
Hourly Data Report for November 18, 2017
Temp Definition
°C
Dew Point Temp Definition
°C
Rel Hum Definition
%
Wind Dir Definition
10's deg

Wind Spd Definition
km/h
Visibility Definition
km
Stn Press Definition
kPa
Hmdx Definition


Wind Chill Definition


Weather Definition


TIME
00:00 Legend Double Dagger -1.7 -5.1 78 30 29 24.1 99.41   -9 Snow
01:00 Legend Double Dagger -2.5 -5.8 78 29 26 24.1 99.47   -9 Snow
02:00 Legend Double Dagger -2.8 -6.2 78 30 26 24.1 99.53   -10 Mainly Clear
03:00 Legend Double Dagger -3.5 -6.7 78 29 22 24.1 99.61   -10 LegendNANA
04:00 Legend Double Dagger -3.6 -6.8 79 29 34 24.1 99.67   -12 LegendNANA
05:00 Legend Double Dagger -3.9 -7.1 78 29 23 24.1 99.73   -11 Mainly Clear
06:00 Legend Double Dagger -4.0 -7.4 78 29 34 24.1 99.75   -12 LegendNANA
07:00 Legend Double Dagger -4.2 -7.3 79 30 21 24.1 99.84   -11 LegendNANA
08:00 Legend Double Dagger -4.2 -7.3 79 27 14 24.1 99.93   -9 Mainly Clear
09:00 Legend Double Dagger -3.6 -7.1 77 27 18 24.1 100.11   -9 LegendNANA
10:00 Legend Double Dagger -3.0 -7.3 72 29 20 24.1 100.12   -9 LegendNANA
11:00 Legend Double Dagger -1.9 -6.8 69 32 16 24.1 100.13   -7 Clear
12:00 Legend Double Dagger -0.7 -5.7 69 28 19 24.1 100.10   -6 LegendNANA
13:00 Legend Double Dagger -0.4 -5.4 69 29 21 24.1 100.04   -6 LegendNANA
14:00 Legend Double Dagger -0.3 -5.4 69 28 17 24.1 100.03   -5 Mainly Clear
15:00 Legend Double Dagger -1.0 -5.4 72 30 8 24.1 100.02   -4 LegendNANA
16:00 Legend Double Dagger -1.9 -5.7 75 28 7 24.1 100.04   -5 LegendNANA
17:00 Legend Double Dagger -2.5 -5.5 79 26 10 24.1 100.06   -6 Cloudy
18:00 Legend Double Dagger -2.8 -5.6 81 25 15 24.1 100.11   -8 LegendNANA
19:00 Legend Double Dagger -2.8 -5.8 80 29 4 24.1 100.07   -4 LegendNANA
20:00 Legend Double Dagger -3.0 -5.8 81 36 2 24.1 100.08   -4 Cloudy
21:00 Legend Double Dagger -3.0 -5.6 82 30 4 24.1 100.10   -5 LegendNANA
22:00 Legend Double Dagger -3.2 -5.7 83 14 4 24.1 100.04   -5 LegendNANA
23:00 Legend Double Dagger -3.5 -5.2 88 24 6 24.1 100.02   -6 Cloudy

Notes on Data Quality.

Legend

  • E = Estimated
  • M = Missing
  • NA = Not Available
  • ‡ = Partner data that is not subject to review by the National Climate Archives
Date modified: